Flag for Cuba Weather past 2 weeks in Holguín, Cuba

Now
70 °F

Passing clouds.


Feels Like: 70 °F
Forecast: 70 / 83 °F
Wind: 2 mph from North

Location: Holguin Civ / Mil

Current Time: Apr 2, 2015 at 1:06:49 AM

Latest Report: Apr 1, 2015 at 11:50 PM


Visibility: 6 mi

Pressure: 30.09 "Hg

Humidity: 78%

Dew point: 63 °F

Location of HolguínLocation

Historic Weather in Holguín — Graph

°F

Holguín temperature yesterday

Maximum temperature yesterday: 82 °F (at 11:50 AM)
Minimum temperature yesterday: 64 °F (at 4:50 AM)
Average temperature yesterday: 73 °F

Past Weeks' High & Low Weather Summary

 TemperatureHumidityPressure
High95 °F (Mar 25, 3:50 PM)94% (Mar 18, 5:50 AM)30.15 "Hg (Mar 18, 5:50 AM)
Low63 °F (Mar 22, 6:50 AM)23% (Mar 25, 3:50 PM)29.89 "Hg (Mar 18, 3:50 PM)
Average77 °F66%30.03 "Hg
* Reported Mar 17 11:50 PM — Apr 1 11:50 PM, Holguín, Weather by CustomWeather, © 2015

Note: Actual official high and low records may vary slightly from our data, if they occured in-between our weather recording intervals... More about our weather records

Advertising

Holguín weather history for previous 24 hours

 ConditionsComfort  
Time TempWeatherWind HumidityBarometerVisibility
11:50 PM
Wed, Apr 1
70 °FPassing clouds.2 mph78%30.09 "Hg6 mi
10:50 PM73 °FPassing clouds.6 mph69%30.09 "Hg6 mi
9:50 PM73 °FPassing clouds.9 mph69%30.07 "Hg6 mi
8:50 PM73 °FPassing clouds.12 mph65%30.04 "Hg6 mi
7:51 PM75 °FScattered clouds.12 mph61%30.04 "Hg6 mi
6:50 PM77 °FScattered clouds.17 mph57%30.01 "Hg6 mi
5:50 PM79 °FScattered clouds.18 mph58%30.01 "HgN/A
4:50 PM79 °FScattered clouds.24 mph61%30.01 "HgN/A
3:50 PM79 °FScattered clouds.21 mph61%30.01 "HgN/A
2:50 PM79 °FScattered clouds.26 mph61%30.04 "HgN/A
1:51 PM82 °FScattered clouds.20 mph55%30.04 "HgN/A
12:50 PM81 °FScattered showers. Partly sunny.14 mph54%30.07 "Hg5 mi
11:50 AM82 °FPartly sunny.13 mph51%30.09 "HgN/A
10:53 AM81 °FPartly sunny.13 mph54%30.09 "HgN/A
9:50 AM79 °FScattered clouds.16 mph54%30.09 "HgN/A
8:50 AM75 °FPassing clouds.12 mph69%30.07 "HgN/A
7:50 AM68 °FPassing clouds.5 mph88%30.07 "HgN/A
6:50 AM64 °FPassing clouds.7 mph88%30.04 "Hg6 mi
5:50 AM64 °FPassing clouds.6 mph88%30.04 "Hg6 mi
4:50 AM64 °FClear.5 mph88%30.01 "Hg10 mi
3:50 AM66 °FClear.7 mph88%30.01 "Hg10 mi
2:50 AM66 °FClear.6 mph83%30.04 "Hg10 mi
1:50 AM66 °FClear.6 mph88%30.07 "Hg10 mi
Weather by CustomWeather, © 2015

See weather overviewHow to use our weather pages